Location: Centerville
(32.8776°N, 96.6203°W)
Time: 05:36:05
(UTC+00:00)

CZ-4B R/B - Pass Details

Date: 17 June 2021
Orbit: 702 x 803 km, 98.9° (Epoch: 29 July)

Event Time Altitude Azimuth Distance (km) Brightness Sun altitude
Rises 09:57:42 0° 7° (N) 3,317 7.6 -14.7°
Reaches altitude 10° 10:00:06 10° 2° (N) 2,379 6.7 -14.3°
Maximum altitude 10:05:12 53° 287° (WNW) 974 3.8 -13.5°
Enters shadow 10:09:02 17° 216° (SW) 1,896 4.9 -12.8°
